THORAD DELTA 1 DEB, 18693

Orbit data source: Space-Track

THORAD DELTA 1 DEB, 18693 is space debris in SSO originally from a launch on Fri, 15 Nov 1974 UTC launched from the Air Force Western Test Range (AFWTR). Debris objects in space refer to the collection of defunct objects orbiting the Earth. Examples of debris include non-operational satellites, rocket bodies, and fragments generated from explosions, collisions, or faulty payload assembly.

Loading next visibility...
Identifier
18693, 1974-089FA
Orbit
SSO
Country
Flag of USUS
Related business
Manufacturer
Unknown
Mission
Spacecraft
Bus & Motor
Unknown
Mass
Unknown
Launch date (UTC)
1974-11-15 (51 years ago)
Launch vehicle
Unknown
Launch site
Air Force Western Test Range (AFWTR)
Object type
Payload
Rocket body
Debris
Shape & HBR
Unknown shape, 0.1 m
Radar Cross Section
Small (<0.1 m²)

Expand to show TLE details & history
Last TLE update: 3 days ago

TLE from 3 days ago
0 THORAD DELTA 1 DEB
1 18693U 74089FA  25297.37861150  .00000474  00000-0  16477-2 0  9993
2 18693 101.7602 227.5496 0193921 247.4517 238.2983 12.97996367750631
Epoch: 2025-10-24T09:05Z
TLE epoch observation values (Epoch: 2025-10-24T09:05:12.033Z)
Latitude
54.46077°
Longitude
-104.91703°
Altitude
1,358.741 km
Speed
7.146 km/s
True Right ascension
04h 17m 37s
True Declination
54° 18' 38"
Sunlit
Object was in full shadow at epoch
Visualization orbit readout
Latitude
Unknown
Longitude
Unknown
Altitude
Unknown
Speed
Unknown
Apparent Right ascension
Unknown
Apparent Declination
Unknown
Sunlit
N/A
Visualization observer readout
Local Sidereal Time
13:22:02
Azimuth
Unknown
Elevation
Unknown
Doppler factor
Unknown
Orbital elements
Apogee altitude
1,415.698 km
Perigee altitude
1,119.17 km
Semi-major axis
7,645.571 km
Eccentricity
0.01939
Inclination
101.7602°
RAAN
227.5496°
Arg. of periapsis
247.4517°
True anomaly
236.43181°
Mean anomaly
238.2983°
Eccentric anomaly
237.36265°
Mean motion
3.2466 °/min
Orbital period
110.89 mins
BSTAR
0.0016477
Loading maneuver chart data...
Computing Atmospheric mass density...

Documentation

Showing up to 5 results
|